Wilmington, DE

7:23 PM EDT on September 22, 2019 (GMT -0400)
New Castle County

Weather History for KILG - August, 2019

Change the Weather History Date:

Saturday, August 24, 2019

  Actual Average Record
Temperature  
Mean Temperature 69 °F 74 °F  
Max Temperature 80 °F 83 °F 95 °F (1914)
Min Temperature 58 °F 65 °F 48 °F (1952)
Degree Days  
Heating Degree Days 0 0  
Month to date heating degree days 0 0  
Since 1 June heating degree days 5 15  
Since 1 July heating degree days 0 0  
Cooling Degree Days 4 9  
Month to date cooling degree days 318 255  
Year to date cooling degree days 1180 932  
Since 1 June cooling degree days 1048 853  
Growing Degree Days 17 (Base 50)    
Moisture  
Dew Point 55 °F    
Average Humidity 68    
Maximum Humidity 93    
Minimum Humidity 43    
Precipitation  
Precipitation 0.00 in 0.09 in 1.82 in (1907)
Month to date precipitation 2.66 2.58  
Year to date precipitation 36.12 28.09  
Snow  
Snow 0.00 in 0.00 in 0.00 in (1894)
Month to date snowfall 0.0 0.0  
Since 1 June snowfall 0.0 0.0  
Since 1 July snowfall 0.0 0.0  
Snow Depth 0.00 in    
Sea Level Pressure  
Sea Level Pressure 30.17 in    
Wind  
Wind Speed 7 mph (NNE)    
Max Wind Speed 16 mph    
Max Gust Speed 22 mph    
Visibility 10 miles    
Events      
T = Trace of Precipitation, MM = Missing Value Source: NWS Daily Summary

Daily Weather History Graph

Daily Weather History Graph

Search for Another Location

Airport or City:

Astronomy

Aug. 24, 2019 Rise Set
Actual Time 6:22 AM EDT 7:46 PM EDT
Civil Twilight 5:54 AM EDT 8:14 PM EDT
Nautical Twilight 5:20 AM EDT 8:47 PM EDT
Astronomical Twilight 4:45 AM EDT 9:23 PM EDT
Moon 12:14 AM EDT (8/24) 2:58 PM EDT (8/24)
Length of Visible Light 14h 19m
Length of Day
13h 23m
Last Quarter, 39% of the Moon is Illuminated
Aug 24
Last Quarter
Aug 30
New
Sep 5
First Quarter
Sep 14
Full
Sep 21
Last Quarter

Hourly Weather History & Observations

Time (EDT) Temp. Dew Point Humidity Pressure Visibility Wind Dir Wind Speed Gust Speed Precip Events Conditions
12:51 AM 64.0 °F 59.0 °F 84% 30.09 in 10.0 mi North 6.9 mph - N/A   Clear
1:51 AM 64.0 °F 57.9 °F 80% 30.08 in 10.0 mi North 5.8 mph - N/A   Clear
2:51 AM 63.0 °F 57.0 °F 81% 30.09 in 10.0 mi North 8.1 mph - N/A   Clear
3:51 AM 62.1 °F 55.0 °F 78% 30.10 in 10.0 mi North 6.9 mph - N/A   Clear
4:51 AM 61.0 °F 54.0 °F 78% 30.12 in 10.0 mi North 3.5 mph - N/A   Clear
5:51 AM 60.1 °F 54.0 °F 80% 30.13 in 10.0 mi North 8.1 mph - N/A   Clear
6:51 AM 57.9 °F 55.0 °F 90% 30.15 in 10.0 mi NNW 4.6 mph - N/A   Partly Cloudy
7:51 AM 61.0 °F 55.0 °F 81% 30.17 in 10.0 mi North 6.9 mph - N/A   Partly Cloudy
8:51 AM 68.0 °F 57.0 °F 68% 30.19 in 10.0 mi NNE 10.4 mph - N/A   Clear
9:51 AM 66.9 °F 55.9 °F 68% 30.19 in 10.0 mi NNE 11.5 mph - N/A   Mostly Cloudy
10:51 AM 73.0 °F 57.0 °F 57% 30.19 in 10.0 mi NNE 13.8 mph - N/A   Mostly Cloudy
11:16 AM 73.9 °F 55.0 °F 52% 30.19 in 10.0 mi ENE 15.0 mph - N/A   Clear
11:51 AM 75.0 °F 57.0 °F 53% 30.19 in 10.0 mi NE 12.7 mph - N/A   Clear
12:51 PM 75.0 °F 57.0 °F 53% 30.19 in 10.0 mi North 5.8 mph - N/A   Overcast
1:51 PM 75.0 °F 54.0 °F 48% 30.18 in 10.0 mi ENE 6.9 mph - N/A   Mostly Cloudy
2:51 PM 75.9 °F 53.1 °F 45% 30.17 in 10.0 mi Calm Calm - N/A   Mostly Cloudy
3:51 PM 77.0 °F 53.1 °F 43% 30.16 in 10.0 mi NNE 8.1 mph - N/A   Overcast
4:51 PM 77.0 °F 54.0 °F 45% 30.16 in 10.0 mi North 6.9 mph - N/A   Mostly Cloudy
5:51 PM 77.0 °F 53.1 °F 43% 30.17 in 10.0 mi North 5.8 mph - N/A   Overcast
6:51 PM 73.9 °F 53.1 °F 48% 30.17 in 10.0 mi North 6.9 mph - N/A   Mostly Cloudy
7:51 PM 70.0 °F 54.0 °F 57% 30.18 in 10.0 mi NNW 3.5 mph - N/A   Overcast
8:51 PM 69.1 °F 55.0 °F 61% 30.20 in 10.0 mi North 4.6 mph - N/A   Overcast
9:51 PM 66.9 °F 55.0 °F 66% 30.22 in 10.0 mi NNE 4.6 mph - N/A   Mostly Cloudy
10:51 PM 69.1 °F 57.0 °F 65% 30.23 in 10.0 mi SE 3.5 mph - N/A   Mostly Cloudy
11:51 PM 64.9 °F 57.9 °F 78% 30.23 in 10.0 mi NW 3.5 mph - N/A   Scattered Clouds